Temp
-13 -12 -10 -12 -12 -10 -10 -10 -9 -9 -9 -9 -9 -8 -9 -9 -8 -8 -8 -8 -8 -9 -8 -8 -8 -8 -9 -9 -9 -9 -9 -9 -10 -10 -10 -10 -10 -10 -10 -11 -12 -12 -12 -12
-13 -12 -12 -13 -12 -11 -11 -10 -10 -10 -9 -9 -9 -8 -9 -8 -8 -8 -8 -8 -8 -9 -9 -9 -9 -9 -9 -9 -9 -9 -9 -10 -10 -10 -10 -10 -10 -10 -11 -11 -12 -12 -12 -12
-14 -13 -14 -13 -13 -12 -11 -11 -11 -11 -10 -10 -9 -8 -9 -9 -8 -9 -9 -8 -9 -9 -9 -9 -9 -9 -9 -9 -9 -9 -10 -10 -10 -10 -10 -10 -10 -11 -11 -12 -12 -12 -12 -12
-14 -13 -13 -14 -13 -13 -12 -12 -12 -12 -11 -10 -10 -8 -9 -9 -8 -9 -9 -9 -9 -9 -9 -9 -9 -9 -9 -9 -9 -10 -10 -10 -10 -10 -10 -11 -11 -11 -11 -12 -12 -12 -12 -12
-13 -13 -14 -14 -14 -14 -13 -13 -13 -13 -12 -10 -10 -9 -8 -9 -8 -9 -9 -9 -9 -10 -9 -9 -9 -9 -9 -9 -10 -10 -10 -10 -10 -11 -11 -11 -11 -11 -12 -12 -12 -12 -12 -12
-13 -13 -13 -13 -14 -15 -14 -13 -13 -13 -13 -11 -10 -10 -7 -9 -9 -10 -9 -10 -10 -10 -10 -10 -9 -9 -9 -10 -10 -10 -10 -11 -11 -11 -11 -11 -11 -12 -12 -12 -12 -12 -13 -13
-14 -14 -14 -14 -14 -15 -15 -15 -14 -14 -13 -11 -11 -11 -8 -9 -9 -10 -10 -10 -10 -10 -10 -10 -10 -10 -10 -10 -10 -10 -11 -11 -11 -11 -11 -11 -11 -12 -12 -12 -13 -13 -13 -13
-15 -14 -14 -14 -14 -14 -15 -15 -15 -15 -14 -13 -12 -11 -9 -10 -10 -11 -11 -10 -10 -10 -10 -10 -10 -10 -10 -10 -10 -10 -11 -11 -11 -11 -11 -12 -12 -12 -12 -13 -13 -13 -13 -13
-15 -15 -15 -14 -15 -16 -15 -15 -15 -16 -15 -14 -13 -11 -10 -10 -10 -11 -11 -11 -11 -11 -11 -11 -10 -10 -10 -10 -11 -11 -11 -11 -11 -11 -12 -12 -12 -12 -13 -13 -13 -13 -13 -13
-16 -16 -16 -16 -16 -16 -16 -15 -16 -16 -16 -15 -13 -12 -11 -11 -11 -11 -12 -12 -12 -11 -11 -11 -11 -11 -11 -11 -11 -11 -11 -12 -12 -12 -12 -12 -13 -13 -13 -13 -14 -14 -13 -14
-17 -17 -16 -16 -15 -15 -16 -16 -16 -16 -16 -16 -14 -12 -11 -12 -12 -12 -12 -12 -12 -11 -11 -11 -11 -11 -12 -12 -12 -12 -12 -12 -12 -12 -12 -12 -13 -13 -13 -14 -14 -14 -14 -14
-17 -18 -17 -17 -16 -16 -16 -15 -16 -16 -15 -15 -15 -13 -12 -12 -12 -13 -13 -13 -13 -12 -12 -12 -12 -12 -12 -12 -12 -12 -12 -12 -12 -12 -13 -13 -13 -13 -14 -14 -14 -14 -14 -14
-19 -19 -18 -18 -17 -16 -16 -15 -15 -16 -17 -16 -16 -11 -13 -14 -14 -14 -14 -14 -14 -14 -13 -13 -13 -13 -13 -13 -13 -13 -13 -12 -13 -13 -13 -13 -13 -14 -14 -15 -15 -15 -15 -15
-21 -20 -19 -18 -16 -16 -16 -16 -16 -16 -17 -16 -16 -12 -13 -14 -14 -15 -15 -15 -14 -14 -14 -14 -13 -13 -13 -13 -13 -13 -13 -13 -13 -13 -13 -13 -14 -13 -15 -15 -15 -15 -15 -15
-22 -21 -20 -19 -18 -18 -17 -17 -17 -17 -16 -17 -14 -14 -13 -14 -15 -16 -15 -15 -14 -14 -15 -14 -14 -14 -14 -14 -14 -13 -13 -13 -14 -14 -14 -14 -14 -14 -15 -15 -15 -15 -15 -15
-22 -22 -20 -20 -19 -18 -18 -18 -18 -17 -17 -16 -15 -14 -14 -14 -15 -16 -16 -15 -15 -15 -15 -15 -14 -15 -15 -14 -14 -14 -14 -14 -14 -14 -14 -14 -14 -15 -15 -15 -15 -15 -15 -15
-22 -22 -21 -20 -19 -19 -19 -18 -17 -17 -17 -16 -16 -14 -15 -15 -15 -15 -16 -16 -16 -16 -16 -16 -16 -15 -15 -15 -15 -14 -14 -14 -15 -15 -15 -14 -15 -15 -15 -15 -15 -15 -15 -15
-22 -23 -22 -21 -20 -21 -19 -18 -17 -17 -17 -17 -16 -15 -15 -15 -16 -16 -16 -16 -17 -17 -17 -16 -16 -15 -15 -15 -15 -15 -15 -15 -15 -15 -15 -15 -16 -16 -16 -15 -15 -15 -15 -15
-23 -23 -23 -22 -21 -21 -19 -18 -17 -17 -16 -16 -16 -16 -16 -16 -16 -15 -15 -15 -16 -16 -16 -16 -16 -15 -15 -16 -16 -16 -16 -16 -15 -16 -16 -16 -16 -16 -16 -16 -16 -15 -15 -15
-25 -24 -23 -23 -22 -21 -20 -18 -18 -18 -18 -17 -16 -16 -16 -16 -16 -14 -15 -15 -16 -16 -16 -16 -16 -16 -16 -16 -16 -16 -16 -16 -16 -16 -16 -16 -16 -16 -16 -16 -15 -15 -15 -15
-24 -24 -24 -23 -23 -22 -20 -19 -18 -19 -17 -17 -17 -16 -16 -16 -15 -17 -17 -16 -16 -16 -15 -16 -16 -16 -16 -16 -16 -16 -16 -16 -16 -17 -17 -16 -16 -16 -16 -16 -15 -15 -15 -15
-24 -23 -24 -24 -24 -22 -21 -20 -19 -17 -17 -17 -17 -17 -17 -16 -16 -16 -16 -16 -15 -16 -16 -16 -16 -16 -16 -16 -16 -16 -16 -17 -17 -17 -17 -16 -16 -16 -16 -16 -15 -15 -15 -15
-25 -24 -23 -24 -23 -23 -21 -19 -18 -18 -17 -18 -17 -17 -17 -16 -16 -16 -16 -16 -16 -16 -16 -16 -16 -16 -16 -16 -16 -16 -17 -17 -17 -17 -17 -17 -17 -16 -16 -16 -15 -15 -15 -16
-25 -23 -22 -23 -23 -22 -22 -20 -19 -18 -18 -18 -18 -18 -17 -17 -16 -16 -16 -16 -16 -16 -16 -16 -16 -16 -16 -16 -17 -17 -17 -17 -18 -18 -17 -17 -17 -16 -16 -15 -15 -16 -16 -17
-26 -24 -24 -24 -23 -23 -22 -21 -20 -19 -19 -18 -18 -18 -18 -17 -16 -17 -17 -16 -16 -16 -16 -16 -16 -16 -16 -17 -17 -17 -17 -17 -17 -18 -18 -17 -17 -16 -16 -16 -16 -17 -17 -17
-26 -25 -25 -23 -23 -22 -21 -21 -22 -21 -20 -20 -20 -19 -19 -18 -17 -16 -17 -17 -16 -16 -17 -17 -17 -17 -17 -17 -17 -17 -17 -18 -18 -18 -18 -17 -17 -17 -17 -16 -17 -17 -17 -18
Height
5735 5740 5747 5751 5752 5756 5760 5764 5769 5773 5776 5779 5783 5789 5793 5794 5798 5802 5803 5806 5808 5810 5811 5811 5812 5812 5812 5811 5811 5809 5807 5805 5803 5800 5797 5793 5789 5785 5782 5777 5773 5768 5763 5758
5726 5732 5737 5738 5742 5747 5751 5754 5759 5763 5765 5769 5773 5779 5784 5785 5790 5793 5795 5799 5801 5803 5804 5805 5805 5806 5806 5806 5806 5805 5803 5801 5798 5795 5793 5789 5786 5782 5779 5775 5771 5766 5762 5757
5715 5723 5725 5728 5732 5737 5741 5746 5748 5752 5755 5758 5762 5768 5776 5778 5780 5785 5788 5791 5794 5796 5798 5799 5800 5800 5800 5800 5800 5799 5798 5796 5793 5791 5788 5785 5782 5779 5776 5772 5769 5764 5760 5755
5702 5708 5713 5717 5723 5727 5729 5736 5739 5741 5743 5748 5752 5754 5765 5769 5771 5776 5780 5783 5785 5787 5790 5792 5793 5793 5793 5794 5793 5793 5792 5790 5788 5786 5783 5780 5777 5775 5773 5769 5766 5762 5759 5754
5696 5699 5703 5708 5717 5718 5722 5724 5727 5731 5733 5736 5742 5742 5756 5760 5763 5767 5772 5775 5778 5780 5782 5784 5785 5786 5787 5787 5787 5786 5785 5784 5782 5781 5779 5776 5773 5771 5769 5766 5763 5760 5757 5753
5681 5685 5689 5698 5703 5704 5710 5712 5715 5718 5722 5724 5732 5734 5739 5752 5757 5760 5762 5766 5769 5772 5774 5776 5778 5779 5780 5780 5780 5780 5779 5778 5777 5775 5773 5771 5769 5767 5765 5762 5760 5757 5754 5751
5673 5677 5682 5686 5691 5693 5697 5703 5704 5706 5709 5716 5718 5724 5733 5742 5748 5751 5754 5756 5760 5763 5766 5768 5769 5771 5772 5772 5773 5773 5772 5772 5771 5769 5768 5766 5764 5762 5761 5759 5757 5755 5752 5749
5656 5662 5668 5676 5679 5685 5688 5690 5693 5695 5701 5708 5706 5714 5727 5731 5737 5742 5744 5747 5750 5753 5756 5758 5760 5762 5764 5764 5764 5765 5765 5764 5764 5763 5762 5760 5759 5758 5756 5754 5753 5751 5749 5746
5646 5650 5656 5661 5666 5671 5672 5673 5684 5682 5686 5691 5695 5707 5715 5721 5725 5732 5735 5737 5740 5743 5746 5748 5751 5753 5754 5755 5756 5757 5757 5757 5757 5757 5755 5754 5753 5752 5751 5749 5749 5747 5745 5743
5630 5637 5643 5648 5653 5656 5662 5670 5668 5669 5674 5677 5684 5692 5702 5710 5714 5718 5726 5728 5730 5733 5736 5739 5741 5743 5745 5746 5748 5748 5749 5749 5750 5750 5749 5748 5747 5747 5746 5744 5743 5743 5741 5739
5618 5623 5627 5633 5637 5645 5651 5655 5658 5663 5665 5667 5674 5681 5694 5700 5705 5709 5713 5717 5720 5723 5726 5729 5731 5733 5736 5738 5739 5740 5741 5742 5742 5742 5742 5742 5741 5741 5739 5738 5737 5737 5736 5735
5605 5605 5610 5617 5625 5632 5639 5646 5648 5650 5659 5660 5663 5670 5684 5691 5696 5699 5702 5707 5710 5713 5716 5718 5721 5724 5727 5729 5730 5732 5733 5734 5735 5735 5736 5735 5735 5734 5733 5732 5732 5731 5731 5729
5582 5581 5589 5595 5606 5616 5622 5631 5639 5643 5644 5647 5652 5666 5675 5678 5683 5688 5692 5697 5701 5703 5706 5710 5713 5715 5717 5719 5721 5723 5725 5726 5727 5727 5728 5728 5727 5727 5726 5725 5725 5724 5724 5724
5558 5568 5574 5583 5602 5610 5613 5622 5628 5632 5633 5643 5642 5656 5656 5666 5672 5675 5681 5687 5691 5694 5697 5700 5703 5705 5708 5710 5713 5715 5717 5718 5718 5719 5720 5720 5720 5719 5718 5717 5717 5717 5717 5718
5535 5545 5559 5574 5582 5586 5598 5606 5611 5615 5628 5623 5643 5640 5648 5651 5658 5663 5668 5675 5680 5685 5688 5691 5693 5696 5698 5701 5704 5706 5708 5709 5709 5710 5711 5710 5711 5710 5709 5710 5711 5710 5711 5711
5518 5526 5544 5554 5565 5570 5577 5589 5597 5604 5614 5617 5628 5634 5639 5638 5639 5649 5658 5664 5669 5673 5677 5681 5684 5686 5689 5691 5694 5696 5698 5699 5700 5701 5701 5702 5702 5702 5702 5703 5704 5704 5705 5705
5501 5513 5524 5534 5549 5554 5550 5569 5585 5594 5602 5611 5614 5633 5624 5629 5631 5636 5642 5650 5658 5663 5666 5669 5673 5676 5679 5682 5685 5687 5688 5689 5689 5691 5691 5692 5693 5694 5696 5697 5697 5698 5698 5697
5492 5498 5509 5521 5529 5520 5539 5559 5573 5581 5591 5598 5606 5620 5620 5621 5621 5622 5628 5635 5642 5646 5652 5658 5662 5665 5668 5672 5674 5676 5677 5678 5680 5681 5681 5683 5685 5687 5688 5689 5690 5690 5690 5690
5473 5484 5491 5499 5505 5512 5528 5543 5558 5567 5583 5589 5599 5609 5609 5609 5608 5615 5620 5624 5628 5632 5638 5643 5648 5654 5658 5659 5663 5665 5667 5669 5670 5671 5673 5676 5677 5679 5681 5682 5683 5683 5683 5681
5457 5465 5473 5482 5486 5489 5513 5543 5554 5556 5555 5578 5590 5599 5597 5598 5599 5615 5609 5612 5617 5622 5627 5633 5638 5641 5645 5648 5651 5654 5657 5659 5660 5663 5665 5668 5670 5672 5673 5673 5674 5675 5673 5672
5446 5451 5454 5466 5473 5479 5503 5529 5532 5526 5560 5577 5579 5587 5583 5587 5599 5593 5596 5599 5604 5610 5616 5621 5625 5630 5634 5637 5641 5644 5647 5649 5651 5654 5657 5659 5661 5663 5664 5665 5665 5664 5663 5660
5429 5440 5447 5456 5459 5464 5494 5505 5505 5540 5562 5559 5566 5569 5574 5580 5582 5585 5587 5590 5594 5598 5605 5609 5614 5620 5623 5627 5631 5634 5637 5640 5642 5645 5648 5651 5653 5654 5656 5655 5655 5653 5651 5649
5420 5428 5434 5443 5451 5467 5490 5500 5520 5527 5540 5545 5552 5557 5561 5568 5572 5575 5578 5581 5584 5588 5592 5597 5602 5608 5612 5615 5620 5623 5627 5630 5633 5637 5640 5642 5644 5646 5646 5645 5644 5641 5640 5639
5408 5414 5420 5425 5439 5456 5471 5486 5500 5513 5521 5529 5536 5542 5550 5555 5560 5565 5568 5572 5575 5578 5582 5585 5591 5596 5601 5605 5609 5612 5616 5620 5624 5627 5630 5633 5635 5635 5635 5634 5632 5631 5630 5629
5396 5403 5413 5420 5431 5443 5455 5469 5484 5496 5506 5514 5521 5529 5536 5543 5550 5554 5559 5562 5566 5569 5572 5576 5581 5587 5590 5593 5597 5601 5605 5609 5613 5617 5621 5623 5624 5625 5625 5623 5622 5621 5620 5621
5389 5396 5399 5412 5421 5434 5441 5449 5462 5478 5491 5500 5508 5517 5525 5531 5537 5544 5549 5554 5557 5561 5565 5568 5572 5576 5580 5584 5588 5592 5596 5601 5604 5607 5610 5613 5613 5615 5614 5614 5613 5612 5613 5614
Wind_Speed
48 46 45 44 46 47 47 49 50 48 47 47 46 41 40 41 39 36 37 37 35 33 32 29 27 27 27 29 30 29 28 29 27 27 28 29 29 28 28 28 26 24 24 26
53 51 46 47 48 48 48 49 50 50 51 51 49 47 43 44 41 40 40 38 37 37 37 35 32 30 31 31 31 32 30 29 28 28 28 29 29 27 28 28 25 24 23 26
50 51 52 49 48 51 50 49 47 47 50 52 53 51 45 45 45 42 41 40 38 38 39 38 36 35 33 32 31 32 31 30 29 28 29 29 28 27 27 27 25 24 23 24
53 52 53 56 48 50 52 49 48 47 50 54 54 56 49 48 49 45 43 41 41 40 40 40 40 37 34 33 33 33 31 29 29 29 29 29 27 25 26 26 24 24 23 23
48 53 53 54 54 49 49 48 51 50 51 54 54 58 51 49 49 48 44 42 41 40 39 40 38 37 34 34 34 32 31 29 29 29 29 29 27 24 25 25 23 23 22 22
54 51 55 54 56 58 56 51 50 53 54 57 55 56 56 49 47 46 47 44 42 40 38 37 37 35 34 34 33 32 31 29 29 29 29 29 27 24 24 24 23 22 21 20
53 52 49 52 55 62 60 56 52 53 56 59 59 58 56 48 47 45 47 45 42 40 39 38 36 36 34 33 33 31 31 30 29 29 29 28 27 24 23 25 23 21 20 19
61 58 53 47 50 51 64 65 61 56 55 54 59 59 54 51 45 39 41 48 44 41 39 38 37 36 35 34 32 32 31 30 29 29 29 28 26 24 24 24 22 20 19 19
63 62 58 53 49 50 52 57 61 62 61 60 60 57 56 53 50 45 43 40 40 40 38 37 36 36 35 34 34 31 31 29 30 30 30 28 25 25 25 24 22 19 19 18
65 63 60 56 53 52 54 53 54 58 58 61 65 61 56 54 53 49 41 40 40 41 40 38 36 36 35 35 32 31 32 30 31 31 30 28 25 25 26 25 23 20 19 19
66 65 65 62 61 56 53 54 52 55 60 60 62 63 57 49 47 46 42 39 40 40 40 39 38 36 35 34 32 34 32 30 31 31 29 27 26 27 27 26 24 22 21 20
66 66 65 64 61 58 53 51 54 52 51 60 63 57 54 53 46 40 36 30 33 35 37 38 37 35 33 34 34 33 31 31 31 30 29 26 28 28 28 27 26 24 22 20
69 68 68 69 67 64 63 57 53 49 50 47 55 51 51 52 52 45 36 31 32 32 33 33 34 34 35 36 35 33 32 32 31 29 28 29 30 30 30 29 27 25 23 20
62 65 68 71 70 64 63 58 54 50 44 49 50 46 55 54 54 47 40 33 33 32 33 34 36 37 37 36 35 32 32 32 31 31 33 34 33 33 33 30 27 24 24 21
68 70 71 69 66 65 60 56 55 52 45 46 45 44 47 52 52 51 47 40 39 36 34 35 37 37 36 34 34 35 34 34 34 34 36 36 34 33 31 27 25 24 24 24
73 73 69 68 69 68 66 61 57 53 45 46 43 40 40 49 55 55 54 50 46 44 42 40 40 38 36 37 37 37 34 33 33 36 36 34 34 31 27 25 25 24 24 24
65 70 71 71 68 70 71 69 64 59 51 48 42 36 37 38 43 48 53 55 50 47 46 46 47 42 39 41 37 37 38 38 37 36 33 33 30 28 26 25 25 24 24 25
48 60 66 68 69 75 74 68 63 59 53 47 45 36 40 38 33 40 46 48 52 53 49 47 47 47 44 44 41 40 39 35 33 33 32 30 27 25 25 25 24 23 24 28
72 69 70 66 75 76 73 71 65 64 59 52 45 32 37 39 37 37 41 47 47 49 48 49 51 49 45 44 45 40 37 35 33 31 28 27 26 25 25 24 24 27 31 35
72 67 74 68 73 78 75 65 61 60 61 46 37 33 35 37 40 32 35 44 47 49 49 49 48 44 42 42 42 40 37 35 33 31 29 29 29 29 29 30 32 35 39 40
65 70 71 73 66 71 72 65 67 71 55 45 43 38 40 38 28 31 30 36 43 48 44 43 43 42 43 44 42 37 37 35 34 33 32 33 34 34 34 34 36 39 40 40
57 62 62 74 77 73 68 71 76 58 46 51 47 43 41 32 33 36 33 34 35 41 43 42 39 43 41 38 37 38 36 35 35 34 35 35 35 35 36 36 38 39 38 36
46 51 57 66 68 72 63 67 58 56 56 54 50 44 41 38 35 34 33 32 32 36 41 43 41 42 41 41 40 38 37 38 36 36 36 36 36 34 34 35 36 37 35 33
57 55 48 40 68 57 52 61 62 61 58 55 53 46 40 38 36 32 31 33 33 35 39 42 44 45 45 42 38 41 43 39 37 38 36 34 32 31 32 34 36 35 32 29
66 53 56 54 42 55 62 59 57 55 57 58 55 47 41 42 38 35 32 30 32 36 37 41 46 45 45 44 45 45 41 40 38 34 31 32 32 31 32 34 33 32 28 24
56 58 54 54 47 49 59 67 60 55 54 52 52 41 44 39 38 36 33 32 30 33 36 40 43 45 46 47 44 40 36 34 31 30 32 33 32 32 33 34 32 28 22 20
Wind_Direction
247 243 241 242 242 239 237 236 236 236 237 238 240 238 236 237 237 237 237 236 239 247 253 255 261 277 280 283 290 292 298 304 311 316 320 323 327 331 333 330 334 338 342 349
248 246 246 244 242 241 239 239 238 237 238 239 239 238 237 238 235 239 239 241 243 245 249 250 258 268 272 276 283 287 293 301 308 311 315 319 324 328 332 330 331 336 345 353
248 246 246 245 243 240 241 241 239 237 238 239 240 240 238 240 241 236 241 244 243 246 250 253 258 265 269 273 278 284 290 297 302 305 311 314 320 325 330 328 329 335 346 354
247 251 245 242 243 244 241 241 242 238 238 239 241 242 236 238 243 243 240 241 244 245 247 251 256 263 266 271 275 280 285 292 296 300 305 309 315 320 328 325 327 332 343 354
251 250 253 247 243 248 246 242 243 243 240 239 240 243 236 237 239 244 244 244 245 247 250 254 258 261 265 268 272 276 281 286 290 295 300 305 310 316 323 322 323 328 339 352
246 248 246 247 243 244 244 244 241 242 244 242 240 242 243 235 240 243 246 244 246 247 250 253 256 260 262 265 268 273 277 281 284 291 297 302 306 311 319 320 322 326 336 347
252 252 254 250 246 242 242 241 248 246 244 245 246 243 245 242 237 240 246 248 248 248 250 253 256 259 261 263 267 270 273 276 281 286 292 296 300 304 316 316 319 322 330 340
245 246 248 254 253 252 247 247 247 250 251 250 250 248 244 248 242 238 241 246 248 248 249 251 253 257 260 261 264 266 270 273 278 282 287 289 293 299 311 312 314 318 323 332
250 249 249 249 249 248 251 250 250 247 245 244 248 248 245 246 248 243 240 242 245 248 249 250 252 254 257 260 260 263 266 269 273 278 282 285 286 294 306 307 307 309 312 322
247 245 247 247 246 248 251 254 251 243 242 243 243 241 244 244 248 250 242 244 247 248 251 253 254 255 256 255 257 258 260 266 271 276 279 282 281 292 301 301 300 303 304 313
244 246 246 244 245 246 250 252 255 255 245 244 247 244 241 245 249 254 254 244 243 246 249 251 251 250 249 252 253 255 259 264 269 273 275 276 280 291 295 294 293 294 297 302
245 241 242 246 244 244 245 250 251 253 255 252 251 248 246 245 247 249 249 239 235 235 238 242 244 245 247 249 251 256 260 263 267 270 272 271 281 287 288 287 286 289 292 293
236 233 237 237 239 240 242 244 249 252 250 254 253 247 243 247 248 248 244 238 231 230 231 235 239 242 244 247 251 254 257 261 264 265 263 271 277 282 282 279 279 283 284 285
236 233 237 241 250 250 247 248 249 252 255 258 256 252 251 246 245 244 240 232 229 230 231 232 235 240 243 247 250 253 256 258 260 263 267 271 277 280 276 271 271 274 275 279
234 234 232 233 236 239 240 243 244 247 250 250 257 255 250 246 242 240 243 235 230 232 233 232 233 236 240 245 248 250 253 258 262 263 265 270 276 274 269 267 267 268 271 281
233 235 231 231 232 235 237 234 237 240 240 249 250 248 257 248 235 238 243 243 236 235 235 235 239 243 245 245 246 250 256 260 260 262 267 272 270 263 260 261 264 266 275 282
231 231 233 229 230 232 233 232 236 240 238 247 249 250 253 252 246 242 238 242 243 242 240 236 235 239 247 247 248 254 257 258 259 263 267 265 259 257 259 262 267 273 278 281
221 227 228 229 227 230 231 231 232 236 240 242 250 252 254 253 252 245 234 232 237 239 238 240 240 244 252 251 249 255 253 258 259 262 259 253 250 253 257 260 268 274 277 279
218 222 218 223 227 230 227 226 230 236 243 244 248 247 253 253 254 248 243 236 232 235 238 240 242 248 254 250 250 252 251 259 258 256 247 248 251 253 257 261 266 275 280 285
227 217 221 222 226 227 228 226 229 231 231 229 236 238 249 255 255 248 251 243 238 241 243 244 248 249 248 247 247 250 254 256 254 245 245 247 248 248 253 259 268 277 284 289
214 220 225 221 224 229 224 221 224 227 230 236 235 240 241 246 254 250 242 241 238 238 241 242 243 242 247 249 250 248 251 251 244 240 242 244 248 253 259 270 277 283 287 290
208 208 228 226 220 230 219 217 221 228 227 233 231 228 235 244 247 250 249 242 241 238 240 241 240 242 242 241 241 247 249 245 237 237 242 249 256 263 269 275 281 287 292 290
220 219 212 225 229 227 223 224 219 217 221 223 228 226 229 236 245 246 249 252 246 241 236 233 233 235 238 240 241 245 239 237 235 239 247 253 260 266 274 279 286 292 290 286
210 202 197 197 207 211 210 219 217 214 217 221 224 222 222 230 237 236 238 248 249 243 237 235 234 234 236 239 232 232 232 232 235 242 249 255 262 269 278 285 290 289 286 280
220 206 208 224 217 213 213 214 216 216 218 219 220 223 224 225 231 237 240 243 245 242 236 234 234 235 233 228 227 227 228 232 240 245 249 257 264 273 284 290 289 285 278 267
224 224 218 200 206 215 208 208 208 215 215 219 219 225 224 223 225 231 238 237 241 245 233 232 233 234 229 230 231 232 237 237 236 241 249 260 269 277 285 289 284 275 258 256